sat.trackr.live / text

‹ back to catalog

ONEWEB-0141

NORAD 47287 · 2020-100AF

PAYLOAD ACTIVE UNKNOWN

§ Identity

Operator
Country
UK
Launch date
2020-12-18
Launch site
VOSTO
Launch vehicle
Mass (kg)
RCS (m²)

Purposes: comms

External: N2YO · Heavens-Above · Gunter

§ Orbital elements

Epoch: 2026-05-25T03:27:28.950912Z

Period
109.72 min
Inclination
87.8959°
Eccentricity
0.0001979
Mean motion
13.12442168 rev/d
Perigee alt
1,212.2 km
Apogee alt
1,215.2 km
Semi-major
7,591.9 km
B*
-9.8459e-4
RAAN
355.2294°
Arg perigee
93.9518°
Mean anomaly
266.1836°
Rev number
26,165

§ Raw data

ONEWEB-01411 47287U 20100AF  26145.14408508 -.00000341  00000+0 -98459-3 0  99962 47287  87.8959 355.2294 0001979  93.9518 266.1836 13.12442168261651

JSON: /api/v1/satellites/47287 · /tle

For live sub-satellite position, see the globe view (requires WebGL).

§ Visibility from observer

Set your observer location to see the next 7 days of passes ≥ 10°. The values pass through the URL so the page stays shareable.

No JS? Fill the form by hand. The geolocation button needs JavaScript.